EW9154 Weather Reports


Display with metric or nautical units.
time (UTC)temp
F
wind
direction
speed
MPH
gust
MPH
rain 1hr
in
rain 24hr
in
rain mn
in
humidity
%
barometer
mb
20260901183510 91 234 0.0 0.0 0.00 0.00 0.00 42 1027.3
20260901182739 91 234 0.0 0.0 0.00 0.00 0.00 45 1027.5
20260901182218 90 234 0.0 0.0 0.00 0.00 0.00 44 1027.5
20260901181716 89 234 0.0 0.0 0.00 0.00 0.00 47 1027.7
20260901181210 89 234 0.0 0.0 0.00 0.00 0.00 45 1027.9
20260901181151 89 234 0.0 0.0 0.00 0.00 0.00 48 1028.0
20260901180129 88 234 0.0 0.0 0.00 0.00 0.00 50 1028.1
20260901175603 87 234 0.0 0.0 0.00 0.00 0.00 49 1028.1
20260901175048 88 234 0.0 0.0 0.00 0.00 0.00 47 1028.3
20260901175044 87 234 0.0 0.0 0.00 0.00 0.00 47 1028.2
20260901174043 88 234 0.0 0.0 0.00 0.00 0.00 46 1028.3
20260901173518 88 234 0.0 0.0 0.00 0.00 0.00 45 1028.2
20260901172953 87 234 0.0 0.0 0.00 0.00 0.00 47 1028.4
20260901172430 87 234 0.0 0.0 0.00 0.00 0.00 48 1028.5
20260901171930 87 234 0.0 0.0 0.00 0.00 0.00 45 1028.5
20260901171432 88 234 0.0 0.0 0.00 0.00 0.00 46 1028.5
20260901170922 87 234 0.0 0.0 0.00 0.00 0.00 45 1028.5
20260901170906 87 234 0.0 0.0 0.00 0.00 0.00 47 1028.5
20260901170545 87 234 0.0 0.0 0.00 0.00 0.00 50 1028.5
20260901165249 87 234 0.0 0.0 0.00 0.00 0.00 49 1028.5
20260901164720 86 234 0.0 0.0 0.00 0.00 0.00 51 1028.5
20260901164155 85 233 0.0 0.0 0.00 0.00 0.00 53 1028.6
20260901163920 84 233 0.0 0.0 0.00 0.00 0.00 53 1028.6
20260901163146 84 208 0.0 0.0 0.00 0.00 0.00 53 1028.7
20260901162620 83 208 0.0 0.0 0.00 0.00 0.00 55 1028.6
20260901162055 82 208 0.0 0.0 0.00 0.00 0.00 56 1028.6
20260901161528 82 208 0.0 0.0 0.00 0.00 0.00 56 1028.6
20260901161026 82 227 0.0 0.0 0.00 0.00 0.00 56 1028.6
20260901160518 82 229 0.0 0.0 0.00 0.00 0.00 59 1028.6
20260901160014 82 228 0.0 0.0 0.00 0.00 0.00 58 1028.5
20260901155743 82 228 0.0 0.0 0.00 0.00 0.00 60 1028.4
20260901154944 81 228 0.0 0.0 0.00 0.00 0.00 61 1028.5
20260901154713 81 235 0.0 0.0 0.00 0.00 0.00 61 1028.4
20260901153914 80 235 0.0 0.0 0.00 0.00 0.00 63 1028.3
20260901153404 80 235 0.0 0.0 0.00 0.00 0.00 65 1028.4
20260901152900 79 235 0.0 0.0 0.00 0.00 0.00 65 1028.4
20260901152358 78 235 0.0 0.0 0.00 0.00 0.00 66 1028.6
20260901151857 78 235 0.0 0.0 0.00 0.00 0.00 68 1028.5
20260901151352 78 229 0.0 0.0 0.00 0.00 0.00 69 1028.5
20260901150848 77 225 0.0 0.0 0.00 0.00 0.00 70 1028.4
20260901150341 77 225 0.0 0.0 0.00 0.00 0.00 70 1028.6
20260901145837 76 259 0.0 0.0 0.00 0.00 0.00 72 1028.6
20260901145335 76 259 0.0 0.0 0.00 0.00 0.00 74 1028.6
20260901144806 75 265 0.0 0.0 0.00 0.00 0.00 75 1028.8
20260901144240 74 265 0.0 0.0 0.00 0.00 0.00 77 1028.7
20260901143714 74 266 0.0 1.0 0.00 0.00 0.00 77 1028.8
20260901143443 73 266 0.0 1.0 0.00 0.00 0.00 77 1028.8
20260901142710 73 199 0.0 0.0 0.00 0.00 0.00 80 1028.8
20260901142700 72 199 0.0 0.0 0.00 0.00 0.00 80 1028.7
20260901141701 72 221 0.0 0.0 0.00 0.00 0.00 80 1028.7
20260901141132 71 220 0.0 0.0 0.00 0.00 0.00 82 1028.9
20260901140859 71 213 0.0 0.0 0.00 0.00 0.00 82 1028.8
20260901140118 70 213 0.0 0.0 0.00 0.00 0.00 84 1028.9
20260901135550 69 209 0.0 0.0 0.00 0.00 0.00 84 1028.8
20260901135046 69 227 0.0 0.0 0.00 0.00 0.00 86 1028.8
20260901134522 68 230 0.0 0.0 0.00 0.00 0.00 87 1028.9
20260901134016 68 230 0.0 0.0 0.00 0.00 0.00 88 1029.0
20260901133515 67 231 0.0 0.0 0.00 0.00 0.00 89 1029.0
20260901133245 67 232 0.0 0.0 0.00 0.00 0.00 90 1029.0
20260901132511 67 228 0.0 0.0 0.00 0.00 0.00 90 1029.0
20260901132011 67 228 0.0 0.0 0.00 0.00 0.00 90 1029.0
20260901131736 66 228 0.0 0.0 0.00 0.00 0.00 91 1028.9
20260901131236 66 228 0.0 0.0 0.00 0.00 0.00 91 1028.8
20260901130447 66 228 0.0 0.0 0.00 0.00 0.00 91 1028.8
20260901125951 66 229 0.0 0.0 0.00 0.00 0.00 91 1028.7
20260901125422 65 229 0.0 0.0 0.00 0.00 0.00 91 1028.6
20260901124921 65 229 0.0 0.0 0.00 0.00 0.00 91 1028.7
20260901124559 65 229 0.0 0.0 0.00 0.00 0.00 91 1028.5
20260901124445 65 229 0.0 0.0 0.00 0.00 0.00 91 1028.6
20260901123325 65 229 0.0 0.0 0.00 0.00 0.00 91 1028.5
20260901123042 65 229 0.0 0.0 0.00 0.00 0.00 91 1028.5
20260901122308 65 229 0.0 0.0 0.00 0.00 0.00 91 1028.5
20260901121806 65 229 0.0 0.0 0.00 0.00 0.00 91 1028.5
20260901121238 65 229 0.0 0.0 0.00 0.00 0.00 91 1028.4
20260901121006 65 229 0.0 0.0 0.00 0.00 0.00 91 1028.4
20260901120211 65 229 0.0 0.0 0.00 0.00 0.00 91 1028.3
20260901115659 65 229 0.0 0.0 0.00 0.00 0.00 91 1028.3
20260901115157 65 229 0.0 0.0 0.00 0.00 0.00 91 1028.2
20260901114629 65 229 0.0 0.0 0.00 0.00 0.00 90 1028.1
20260901114102 65 229 0.0 0.0 0.00 0.00 0.00 90 1028.1
20260901113532 65 229 0.0 0.0 0.00 0.00 0.00 91 1028.0
20260901113008 66 229 0.0 0.0 0.00 0.00 0.00 91 1028.0
20260901112508 66 229 0.0 0.0 0.00 0.00 0.00 91 1027.9
20260901112240 66 229 0.0 0.0 0.00 0.00 0.00 91 1027.7
20260901111442 66 229 0.0 0.0 0.00 0.00 0.00 91 1027.6
20260901110940 66 229 0.0 0.0 0.00 0.00 0.00 91 1027.4
20260901110415 66 229 0.0 0.0 0.00 0.00 0.00 91 1027.4
20260901105853 66 229 0.0 0.0 0.00 0.00 0.00 91 1027.4
20260901105629 66 229 0.0 0.0 0.00 0.00 0.00 91 1027.5
20260901104831 66 229 0.0 0.0 0.00 0.00 0.00 91 1027.5
20260901104302 66 230 0.0 0.0 0.00 0.00 0.00 91 1027.5
20260901104030 66 230 0.0 0.0 0.00 0.00 0.00 91 1027.6
20260901103229 66 230 0.0 0.0 0.00 0.00 0.00 91 1027.6
20260901102702 66 230 0.0 0.0 0.00 0.00 0.00 91 1027.4
20260901102419 66 235 0.0 0.0 0.00 0.00 0.00 92 1027.5
20260901101647 66 235 0.0 0.0 0.00 0.00 0.00 92 1027.4
20260901101125 66 235 0.0 0.0 0.00 0.00 0.00 92 1027.3
20260901100623 66 235 0.0 0.0 0.00 0.00 0.00 91 1027.3
20260901100356 66 235 0.0 0.0 0.00 0.00 0.00 91 1027.3
20260901095624 66 235 0.0 0.0 0.00 0.00 0.00 91 1027.3
20260901095125 66 235 0.0 0.0 0.00 0.00 0.00 91 1027.4
20260901094605 66 235 0.0 0.0 0.00 0.00 0.00 91 1027.3
20260901094104 66 235 0.0 0.0 0.00 0.00 0.00 91 1027.4
20260901093529 66 235 0.0 0.0 0.00 0.00 0.00 91 1027.3
20260901093028 66 235 0.0 0.0 0.00 0.00 0.00 90 1027.3
20260901092515 66 235 0.0 0.0 0.00 0.00 0.00 90 1027.3
20260901092014 67 235 0.0 0.0 0.00 0.00 0.00 90 1027.3
20260901091449 67 235 0.0 0.0 0.00 0.00 0.00 90 1027.3
20260901090927 67 235 0.0 0.0 0.00 0.00 0.00 90 1027.2
20260901090426 67 235 0.0 0.0 0.00 0.00 0.00 90 1027.0
20260901085914 67 235 0.0 0.0 0.00 0.00 0.00 90 1027.2
20260901085413 67 235 0.0 0.0 0.00 0.00 0.00 90 1027.3
20260901084915 67 235 0.0 0.0 0.00 0.00 0.00 90 1027.2
20260901084404 67 235 0.0 0.0 0.00 0.00 0.00 90 1027.3
20260901083905 67 235 0.0 0.0 0.00 0.00 0.00 90 1027.4
20260901083349 67 235 0.0 0.0 0.00 0.00 0.00 90 1027.3
20260901082852 67 235 0.0 0.0 0.00 0.00 0.00 90 1027.3
20260901082339 67 235 0.0 0.0 0.00 0.00 0.00 89 1027.3
20260901081821 68 235 0.0 0.0 0.00 0.00 0.00 89 1027.2
20260901081553 68 235 0.0 0.0 0.00 0.00 0.00 89 1027.2
20260901080802 68 235 0.0 0.0 0.00 0.00 0.00 89 1027.3
20260901080258 68 235 0.0 0.0 0.00 0.00 0.00 89 1027.3
20260901075801 68 235 0.0 0.0 0.00 0.00 0.00 88 1027.3
20260901075238 68 235 0.0 0.0 0.00 0.00 0.00 88 1027.3
20260901074739 68 235 0.0 0.0 0.00 0.00 0.00 88 1027.2
20260901074220 68 235 0.0 0.0 0.00 0.00 0.00 88 1027.2
20260901073721 68 235 0.0 0.0 0.00 0.00 0.00 87 1027.3
20260901073221 69 235 0.0 0.0 0.00 0.00 0.00 86 1027.3
20260901072659 69 235 0.0 0.0 0.00 0.00 0.00 86 1027.3
20260901072200 69 235 0.0 0.0 0.00 0.00 0.00 86 1027.4
20260901071639 69 235 0.0 0.0 0.00 0.00 0.00 86 1027.4
20260901071126 69 235 0.0 0.0 0.00 0.00 0.00 86 1027.5
20260901070623 69 235 0.0 0.0 0.00 0.00 0.00 86 1027.7
20260901070059 69 235 0.0 0.0 0.00 0.00 0.00 86 1027.7
20260901065535 69 235 0.0 0.0 0.00 0.00 0.00 86 1027.7
20260901065021 69 235 0.0 0.0 0.00 0.00 0.00 86 1027.7
20260901064524 69 235 0.0 0.0 0.00 0.00 0.00 86 1027.7
20260901064008 69 235 0.0 0.0 0.00 0.00 0.00 86 1027.9
20260901063504 69 235 0.0 0.0 0.00 0.00 0.00 86 1027.8
20260901063004 69 235 0.0 0.0 0.00 0.00 0.00 86 1027.9
20260901062726 69 235 0.0 0.0 0.00 0.00 0.00 86 1027.9
20260901062226 69 235 0.0 0.0 0.00 0.00 0.00 86 1027.9
20260901061725 70 235 0.0 0.0 0.00 0.00 0.00 86 1027.9
20260901060942 70 235 0.0 0.0 0.00 0.00 0.00 85 1027.9
20260901060413 70 235 0.0 0.0 0.00 0.00 0.00 85 1027.8
20260901055850 70 235 0.0 0.0 0.00 0.00 0.00 84 1027.8
20260901055331 71 235 0.0 0.0 0.00 0.00 0.00 84 1027.8
20260901054828 71 235 0.0 0.0 0.00 0.00 0.00 83 1027.7
20260901054318 71 234 0.0 0.0 0.00 0.00 0.00 83 1027.7
20260901053818 71 235 0.0 0.0 0.00 0.00 0.00 82 1027.5
20260901053320 71 235 0.0 0.0 0.00 0.00 0.00 82 1027.4
20260901053046 72 235 0.0 0.0 0.00 0.00 0.00 81 1027.5
20260901052314 72 235 0.0 0.0 0.00 0.00 0.00 80 1027.4
20260901051810 72 235 0.0 0.0 0.00 0.00 0.00 79 1027.4
20260901051245 72 235 0.0 0.0 0.00 0.00 0.00 78 1027.3
20260901050733 72 235 0.0 0.0 0.00 0.00 0.00 78 1027.3
20260901050229 73 235 0.0 0.0 0.00 0.00 0.00 77 1027.2
20260901045957 73 235 0.0 0.0 0.00 0.00 0.00 77 1027.0
20260901045207 73 235 0.0 0.0 0.00 0.00 0.00 77 1027.0
20260901044937 73 235 0.0 0.0 0.00 0.00 0.00 77 1026.9
20260901044210 73 235 0.0 0.0 0.00 0.00 0.00 76 1026.8
20260901043704 73 235 0.0 0.0 0.00 0.00 0.00 75 1026.7
20260901043154 73 235 0.0 0.0 0.00 0.00 0.00 75 1026.7
20260901042652 74 235 0.0 0.0 0.00 0.00 0.00 75 1026.7
20260901042155 74 235 0.0 0.0 0.00 0.00 0.00 75 1026.6
20260901041629 74 235 0.0 0.0 0.00 0.00 0.00 75 1026.6
20260901041122 74 235 0.0 0.0 0.00 0.00 0.00 75 1026.7
20260901040625 74 235 0.0 0.0 0.00 0.00 0.00 75 1026.8
20260901040058 74 235 0.0 0.0 0.00 0.00 0.00 75 1026.8
20260901035534 74 235 0.0 0.0 0.00 0.00 0.00 75 1026.9
20260901035023 74 235 0.0 0.0 0.00 0.00 0.00 75 1026.9
20260901034519 74 235 0.0 0.0 0.00 0.00 0.00 76 1027.0
20260901034017 74 235 0.0 0.0 0.00 0.00 0.00 76 1027.0
20260901033516 74 235 0.0 0.0 0.00 0.00 0.00 76 1027.0
20260901033010 74 235 0.0 0.0 0.00 0.00 0.00 76 1027.2
20260901032445 74 235 0.0 0.0 0.00 0.00 0.00 76 1027.0
20260901031942 74 235 0.0 0.0 0.00 0.00 0.00 76 1026.8
20260901031418 75 235 0.0 0.0 0.00 0.00 0.00 76 1026.8
20260901030852 75 235 0.0 0.0 0.00 0.00 0.00 76 1026.9
20260901030346 75 235 0.0 0.0 0.00 0.00 0.00 75 1026.8
20260901030323 75 235 0.0 0.0 0.00 0.00 0.00 75 1026.8
20260901025534 75 235 0.0 0.0 0.00 0.00 0.00 75 1026.8
20260901024759 75 234 0.0 0.0 0.00 0.00 0.00 74 1026.8
20260901024258 75 235 0.0 0.0 0.00 0.00 0.00 74 1026.6
20260901023753 75 234 0.0 0.0 0.00 0.00 0.00 74 1026.7
20260901023246 76 235 0.0 0.0 0.00 0.00 0.00 74 1026.7
20260901022720 76 235 0.0 0.0 0.00 0.00 0.00 73 1026.7
20260901022211 76 235 0.0 0.0 0.00 0.00 0.00 73 1026.6
20260901021708 76 238 0.0 0.0 0.00 0.00 0.00 73 1026.5
20260901021152 77 238 0.0 0.0 0.00 0.00 0.00 72 1026.6
20260901020650 77 238 0.0 0.0 0.00 0.00 0.00 71 1026.6
20260901020151 77 238 0.0 0.0 0.00 0.00 0.00 71 1026.5
20260901015649 77 238 0.0 0.0 0.00 0.00 0.00 70 1026.5
20260901015145 78 238 0.0 0.0 0.00 0.00 0.00 69 1026.4
20260901014644 78 238 0.0 0.0 0.00 0.00 0.00 68 1026.4
20260901014125 78 238 0.0 0.0 0.00 0.00 0.00 68 1026.4
20260901013621 78 238 0.0 0.0 0.00 0.00 0.00 67 1026.3
20260901013111 78 238 0.0 0.0 0.00 0.00 0.00 66 1026.2
20260901012607 79 238 0.0 0.0 0.00 0.00 0.00 66 1026.1
20260901012105 79 238 0.0 0.0 0.00 0.00 0.00 65 1026.1
20260901011537 79 238 0.0 0.0 0.00 0.00 0.00 65 1026.1
20260901011033 80 238 0.0 0.0 0.00 0.00 0.00 64 1026.0
20260901010507 80 238 0.0 0.0 0.00 0.00 0.00 64 1026.0
20260901010229 80 238 0.0 0.0 0.00 0.00 0.00 64 1026.0
20260901005432 81 238 0.0 0.0 0.00 0.00 0.00 63 1026.0
20260901005153 81 238 0.0 0.0 0.00 0.00 0.00 63 1026.1
20260901004417 81 238 0.0 0.0 0.00 0.00 0.00 63 1025.9
20260901003848 82 238 0.0 0.0 0.00 0.00 0.00 62 1025.9
20260901003613 82 236 0.0 0.0 0.00 0.00 0.00 61 1025.9
20260901002831 83 259 0.0 0.0 0.00 0.00 0.00 61 1025.8
20260901002327 83 259 0.0 0.0 0.00 0.00 0.00 60 1025.8
20260901001825 83 259 0.0 0.0 0.00 0.00 0.00 60 1025.8
20260901001300 84 259 0.0 0.0 0.00 0.00 0.00 59 1025.9
20260901001002 84 259 0.0 0.0 0.00 0.00 0.00 58 1025.9
20260901000445 85 259 0.0 0.0 0.00 0.00 0.00 58 1025.8
20260831235700 85 259 0.0 0.0 0.00 0.00 0.00 57 1025.7
20260831235156 86 260 0.0 0.0 0.00 0.00 0.00 56 1025.7
20260831234924 86 234 0.0 0.0 0.00 0.00 0.00 54 1025.7
20260831234356 87 234 0.0 0.0 0.00 0.00 0.00 52 1025.7
20260831233623 88 234 0.0 0.0 0.00 0.00 0.00 50 1025.7
20260831233111 88 234 0.0 0.0 0.00 0.00 0.00 48 1025.8
20260831232609 89 227 0.0 0.0 0.00 0.00 0.00 47 1025.7
20260831232108 89 91 0.0 0.0 0.00 0.00 0.00 45 1025.7
20260831231539 90 91 0.0 0.0 0.00 0.00 0.00 43 1025.7
20260831231035 91 91 0.0 0.0 0.00 0.00 0.00 44 1025.6
20260831230527 91 240 0.0 0.0 0.00 0.00 0.00 43 1025.6
20260831230025 92 240 0.0 0.0 0.00 0.00 0.00 42 1025.6
20260831225530 92 228 0.0 0.0 0.00 0.00 0.00 42 1025.6
20260831225001 93 228 0.0 0.0 0.00 0.00 0.00 41 1025.6
20260831224500 93 265 0.0 0.0 0.00 0.00 0.00 41 1025.5
20260831224202 94 283 0.0 0.0 0.00 0.00 0.00 40 1025.5
20260831223430 94 284 0.0 0.0 0.00 0.00 0.00 38 1025.6
20260831223137 95 284 0.0 0.0 0.00 0.00 0.00 37 1025.5
20260831222404 95 229 0.0 0.0 0.00 0.00 0.00 38 1025.4
20260831221901 96 279 0.0 0.0 0.00 0.00 0.00 40 1025.4
20260831221333 95 279 0.0 0.0 0.00 0.00 0.00 38 1025.4
20260831220832 95 280 0.0 0.0 0.00 0.00 0.00 37 1025.3
20260831220534 96 263 0.0 0.0 0.00 0.00 0.00 36 1025.2
20260831215802 96 223 0.0 0.0 0.00 0.00 0.00 40 1025.2
20260831215243 96 223 0.0 0.0 0.00 0.00 0.00 37 1025.3
20260831214715 96 221 0.0 0.0 0.00 0.00 0.00 37 1025.2
20260831214211 96 221 0.0 0.0 0.00 0.00 0.00 36 1025.2
20260831213709 97 278 0.0 0.0 0.00 0.00 0.00 36 1025.1
20260831213207 97 231 0.0 0.0 0.00 0.00 0.00 35 1025.1
20260831212649 97 231 0.0 1.0 0.00 0.00 0.00 36 1025.1
20260831212153 97 231 0.0 1.0 0.00 0.00 0.00 34 1025.1
20260831211630 97 287 0.0 0.0 0.00 0.00 0.00 36 1025.0
20260831211130 97 180 0.0 0.0 0.00 0.00 0.00 34 1025.0
20260831210904 97 178 0.0 0.0 0.00 0.00 0.00 34 1025.0
20260831210629 97 178 0.0 0.0 0.00 0.00 0.00 35 1025.0
20260831205856 97 229 0.0 0.0 0.00 0.00 0.00 38 1025.0
20260831205129 97 236 0.0 0.0 0.00 0.00 0.00 38 1025.0
20260831204602 97 237 0.0 0.0 0.00 0.00 0.00 41 1024.9
20260831204057 97 260 0.0 0.0 0.00 0.00 0.00 42 1024.9
20260831203530 96 260 0.0 0.0 0.00 0.00 0.00 42 1024.9
20260831203010 96 273 0.0 0.0 0.00 0.00 0.00 39 1025.0
20260831202507 97 271 0.0 0.0 0.00 0.00 0.00 41 1025.0
20260831202240 96 192 0.0 0.0 0.00 0.00 0.00 42 1025.0
20260831202110 97 254 0.0 0.0 0.00 0.00 0.00 41 1025.0
20260831201002 96 240 0.0 0.0 0.00 0.00 0.00 43 1025.0
20260831200437 96 223 0.0 0.0 0.00 0.00 0.00 42 1025.0
20260831195909 96 211 0.0 0.0 0.00 0.00 0.00 42 1025.0
20260831195408 96 211 0.0 0.0 0.00 0.00 0.00 42 1024.9
20260831194839 96 210 0.0 0.0 0.00 0.00 0.00 40 1024.9
20260831194338 96 257 0.0 0.0 0.00 0.00 0.00 41 1024.9
20260831193811 96 200 0.0 0.0 0.00 0.00 0.00 43 1024.9
20260831193308 96 221 0.0 0.0 0.00 0.00 0.00 42 1024.9
20260831193038 96 221 0.0 0.0 0.00 0.00 0.00 42 1024.9
20260831192306 96 221 0.0 0.0 0.00 0.00 0.00 42 1024.8
20260831191759 96 221 0.0 0.0 0.00 0.00 0.00 43 1024.8
20260831191304 95 205 0.0 0.0 0.00 0.00 0.00 43 1024.8
20260831190738 95 218 0.0 0.0 0.00 0.00 0.00 45 1024.8
20260831190214 95 209 0.0 0.0 0.00 0.00 0.00 46 1024.9
20260831185919 95 260 0.0 0.0 0.00 0.00 0.00 43 1024.9
20260831185147 94 259 0.0 0.0 0.00 0.00 0.00 47 1024.8
20260831184644 94 259 0.0 0.0 0.00 0.00 0.00 47 1024.8
20260831184144 94 269 0.0 0.0 0.00 0.00 0.00 48 1024.8